Weather History for Lamoni, IA

Change the Weather History Date:

Friday, January 6, 2012

  Actual Average Record
Temperature  
Mean Temperature 43 °F 24 °F  
Max Temperature 55 °F 33 °F 55 °F (2012)
Min Temperature 30 °F 15 °F -14 °F (2014)
Degree Days  
Heating Degree Days 22 41  
Month to date heating degree days 181 246  
Since 1 July heating degree days 2325 2675  
Cooling Degree Days 0 0  
Month to date cooling degree days 0 0  
Year to date cooling degree days 0 0  
Moisture  
Dew Point 27 °F    
Average Humidity 56    
Maximum Humidity 82    
Minimum Humidity 29    
Precipitation  
Precipitation 0.00 in 0.03 in 0.10 in (1976)
Month to date precipitation 0.02 0.14  
Year to date precipitation 0.02  
Sea Level Pressure  
Sea Level Pressure 29.85 in    
Wind  
Wind Speed 9 mph (NW)    
Max Wind Speed 20 mph    
Max Gust Speed 28 mph    
Visibility 10 miles    
Events      
T = Trace of Precipitation, MM = Missing Value Source: NWS Daily Summary

Daily Weather History Graph

Daily Weather History Graph

Search for Another Location

Airport:

Trip Planner

Search our weather history database for the weather conditions in past years. The results will help you decide how hot, cold, wet, or windy it might be!

Date:

Astronomy

Jan. 06, 2012 Rise Set
Actual Time 7:39 AM CST 5:03 PM CST
Civil Twilight 7:08 AM CST 5:33 PM CST
Nautical Twilight 6:34 AM CST 6:08 PM CST
Astronomical Twilight 6:01 AM CST 6:41 PM CST
Moon 2:54 PM CST (1/6) 5:20 AM CST (1/6)
Length of Visible Light 10h 24m
Length of Day
9h 23m
Waxing Gibbous, 93% of the Moon is Illuminated
Jan 6
Waxing Gibbous
Jan 9
Full
Jan 16
Last Quarter
Jan 23
New
Jan 30
First Quarter

Hourly Weather History & Observations

Time (CST) Temp. Windchill Dew Point Humidity Pressure Visibility Wind Dir Wind Speed Gust Speed Precip Events Conditions
2:53 AM 39.9 °F 32.9 °F 28.9 °F 65% 29.71 in 10.0 mi SW 11.5 mph - N/A   Clear
3:53 AM 41.0 °F 35.2 °F 30.0 °F 65% 29.70 in 10.0 mi SW 9.2 mph - N/A   Clear
4:53 AM 39.9 °F 37.8 °F 30.0 °F 68% 29.71 in 10.0 mi SW 3.5 mph - N/A   Clear
5:53 AM 39.0 °F 35.7 °F 30.0 °F 70% 29.73 in 10.0 mi SW 4.6 mph - N/A   Clear
6:53 AM 36.0 °F 32.1 °F 28.9 °F 76% 29.74 in 10.0 mi SW 4.6 mph - N/A   Clear
7:53 AM 36.0 °F 31.1 °F 30.0 °F 79% 29.75 in 10.0 mi West 5.8 mph - N/A   Clear
8:53 AM 41.0 °F 38.0 °F 33.1 °F 73% 29.77 in 10.0 mi West 4.6 mph - N/A   Clear
9:53 AM 46.9 °F - 32.0 °F 56% 29.78 in 10.0 mi North 5.8 mph - N/A   Clear
10:53 AM 48.9 °F - 30.9 °F 50% 29.79 in 10.0 mi North 10.4 mph - N/A   Clear
12:53 PM 53.1 °F - 28.0 °F 38% 29.79 in 10.0 mi North 13.8 mph - N/A   Clear
1:53 PM 55.0 °F - 27.0 °F 34% 29.81 in 10.0 mi North 12.7 mph - N/A   Clear
2:53 PM 54.0 °F - 23.0 °F 30% 29.82 in 10.0 mi North 15.0 mph 27.6 mph N/A   Clear
3:53 PM 52.0 °F - 24.1 °F 34% 29.86 in 10.0 mi North 18.4 mph 25.3 mph N/A   Clear
4:53 PM 46.9 °F - 23.0 °F 39% 29.90 in 10.0 mi North 10.4 mph - N/A   Clear
5:53 PM 45.0 °F 41.8 °F 25.0 °F 46% 29.93 in 10.0 mi NNW 5.8 mph - N/A   Clear
6:53 PM 43.0 °F 35.7 °F 26.1 °F 51% 29.96 in 10.0 mi NNW 15.0 mph 20.7 mph N/A   Clear
7:53 PM 41.0 °F 34.7 °F 27.0 °F 57% 29.97 in 10.0 mi NNW 10.4 mph - N/A   Clear
8:53 PM 39.0 °F 32.8 °F 26.1 °F 60% 29.99 in 10.0 mi NNW 9.2 mph - N/A   Clear
9:53 PM 33.1 °F 27.7 °F 25.0 °F 72% 30.00 in 10.0 mi NW 5.8 mph - N/A   Clear
10:53 PM 32.0 °F 26.4 °F 24.1 °F 73% 30.01 in 10.0 mi NW 5.8 mph - N/A   Clear
11:53 PM 30.0 °F 22.4 °F 24.1 °F 79% 30.03 in 10.0 mi NW 8.1 mph - N/A   Clear